Location: 22
(39.7117°N, 89.5929°W)
Time: 02:55:25
(UTC-05:00)

A-11 Canister half - Pass Details

Date: 18 June 2023
Orbit: 1524 x 1684 km, 47.3° (Epoch: 30 September)

Event Time Altitude Azimuth Distance (km) Brightness Sun altitude
Rises 22:50:56 0° 296° (WNW) 4,676 12.5 -20.1°
Reaches altitude 10° 22:53:59 10° 298° (WNW) 3,692 11.8 -20.4°
Maximum altitude 23:03:18 75° 24° (NNE) 1,580 9.1 -21.3°
Enters shadow 23:10:47 18° 108° (ESE) 3,129 10.2 -22.0°
